QPF
0.01 0.01 0.01 0.01 0.01 0.01 0.01 0.02 0.02 0.02 0.02 0.01 0.01 0.02 0.02 0.02 0.02 0.01 0.01 0.01 0.01 0.01 0.01 0.01 0.01 0.01 0.01 0.01 0.01 0.01 0.02 0.02 0.03 0.03 0.04 0.05 0.06 0.08
0.01 0.01 0.01 0.01 0.01 0.01 0.01 0.01 0.02 0.02 0.03 0.02 0.02 0.02 0.02 0.02 0.02 0.02 0.01 0.01 0.01 0.01 0.01 0.01 0.01 0.00 0.00 0.01 0.01 0.01 0.01 0.02 0.02 0.03 0.03 0.04 0.05 0.06
0.02 0.01 0.01 0.01 0.01 0.01 0.01 0.01 0.02 0.02 0.02 0.02 0.02 0.02 0.02 0.02 0.02 0.02 0.02 0.02 0.01 0.01 0.01 0.00 0.00 0.00 0.00 0.01 0.01 0.01 0.01 0.01 0.02 0.02 0.03 0.03 0.04 0.04
0.02 0.01 0.01 0.01 0.01 0.01 0.01 0.01 0.01 0.01 0.01 0.01 0.01 0.01 0.01 0.01 0.01 0.01 0.01 0.01 0.01 0.01 0.00 0.00 0.00 0.00 0.00 0.01 0.01 0.01 0.01 0.01 0.01 0.01 0.02 0.03 0.03 0.03
0.01 0.01 0.01 0.01 0.01 0.01 0.01 0.01 0.01 0.01 0.01 0.01 0.01 0.01 0.01 0.01 0.01 0.01 0.01 0.01 0.01 0.01 0.01 0.00 0.00 0.00 0.00 0.01 0.01 0.01 0.01 0.01 0.01 0.01 0.02 0.02 0.03 0.03
0.01 0.01 0.01 0.01 0.01 0.01 0.01 0.01 0.01 0.01 0.01 0.01 0.01 0.01 0.01 0.01 0.01 0.01 0.01 0.01 0.01 0.01 0.01 0.01 0.01 0.00 0.00 0.01 0.01 0.01 0.01 0.01 0.01 0.02 0.02 0.03 0.03 0.04
0.01 0.01 0.01 0.02 0.02 0.02 0.01 0.01 0.01 0.01 0.01 0.01 0.01 0.02 0.01 0.01 0.01 0.01 0.01 0.01 0.01 0.01 0.01 0.01 0.01 0.00 0.00 0.01 0.01 0.01 0.01 0.02 0.02 0.03 0.03 0.02 0.02 0.02
0.01 0.01 0.01 0.02 0.02 0.02 0.02 0.02 0.02 0.02 0.02 0.02 0.02 0.01 0.01 0.01 0.01 0.01 0.01 0.01 0.01 0.01 0.01 0.01 0.01 0.01 0.01 0.01 0.01 0.01 0.01 0.02 0.02 0.02 0.02 0.02 0.02 0.02
0.01 0.01 0.01 0.02 0.02 0.01 0.02 0.02 0.02 0.02 0.02 0.02 0.02 0.01 0.01 0.01 0.01 0.02 0.01 0.01 0.01 0.01 0.01 0.01 0.01 0.01 0.01 0.01 0.01 0.02 0.01 0.02 0.02 0.02 0.01 0.01 0.01 0.01
0.01 0.01 0.01 0.01 0.01 0.01 0.01 0.01 0.01 0.01 0.01 0.01 0.01 0.01 0.01 0.01 0.01 0.02 0.01 0.01 0.01 0.01 0.01 0.01 0.01 0.01 0.01 0.01 0.01 0.01 0.01 0.01 0.02 0.01 0.01 0.01 0.01 0.01
0.01 0.01 0.00 0.01 0.01 0.01 0.01 0.01 0.01 0.01 0.01 0.01 0.01 0.01 0.01 0.01 0.01 0.01 0.01 0.01 0.01 0.01 0.01 0.01 0.01 0.01 0.01 0.01 0.01 0.01 0.01 0.01 0.01 0.01 0.01 0.01 0.01 0.01
0.01 0.01 0.01 0.01 0.01 0.01 0.01 0.01 0.01 0.01 0.01 0.01 0.01 0.01 0.01 0.01 0.01 0.01 0.01 0.01 0.01 0.01 0.01 0.01 0.01 0.01 0.02 0.02 0.01 0.01 0.02 0.02 0.02 0.02 0.01 0.01 0.01 0.01
0.01 0.01 0.01 0.01 0.01 0.01 0.01 0.01 0.01 0.01 0.01 0.01 0.01 0.01 0.01 0.01 0.01 0.01 0.01 0.01 0.01 0.01 0.01 0.01 0.02 0.02 0.02 0.02 0.02 0.02 0.02 0.02 0.02 0.01 0.01 0.01 0.01 0.01
0.01 0.00 0.00 0.01 0.01 0.01 0.01 0.01 0.01 0.01 0.01 0.01 0.01 0.01 0.01 0.01 0.01 0.01 0.01 0.01 0.01 0.01 0.01 0.02 0.02 0.02 0.02 0.02 0.02 0.02 0.02 0.01 0.01 0.01 0.01 0.01 0.01 0.01
0.01 0.01 0.01 0.01 0.01 0.01 0.01 0.01 0.01 0.01 0.01 0.01 0.01 0.01 0.01 0.01 0.01 0.01 0.01 0.01 0.01 0.02 0.02 0.02 0.02 0.02 0.02 0.02 0.01 0.01 0.01 0.01 0.01 0.00 0.01 0.01 0.01 0.00
0.01 0.01 0.01 0.01 0.01 0.01 0.01 0.01 0.00 0.00 0.01 0.01 0.01 0.01 0.01 0.01 0.01 0.01 0.01 0.01 0.02 0.02 0.02 0.01 0.01 0.01 0.02 0.01 0.01 0.01 0.01 0.00 0.00 0.00 0.00 0.00 0.01 0.01
0.02 0.02 0.02 0.02 0.02 0.02 0.01 0.01 0.01 0.01 0.01 0.01 0.01 0.01 0.01 0.01 0.01 0.01 0.01 0.01 0.02 0.02 0.01 0.01 0.01 0.01 0.01 0.01 0.01 0.01 0.00 0.00 0.00 0.00 0.00 0.01 0.01 0.01
0.03 0.03 0.02 0.02 0.02 0.02 0.02 0.01 0.01 0.01 0.01 0.01 0.01 0.01 0.01 0.01 0.01 0.01 0.01 0.01 0.01 0.01 0.01 0.01 0.01 0.01 0.01 0.01 0.01 0.00 0.00 0.00 0.00 0.00 0.00 0.01 0.02 0.02
0.03 0.03 0.02 0.02 0.02 0.02 0.02 0.02 0.01 0.01 0.01 0.01 0.01 0.01 0.01 0.01 0.01 0.01 0.01 0.01 0.01 0.01 0.01 0.01 0.01 0.02 0.02 0.01 0.00 0.00 0.00 0.00 0.00 0.00 0.00 0.01 0.01 0.02
0.02 0.02 0.02 0.02 0.02 0.01 0.01 0.01 0.02 0.01 0.01 0.01 0.01 0.01 0.01 0.01 0.01 0.01 0.01 0.01 0.01 0.02 0.01 0.01 0.01 0.01 0.02 0.01 0.01 0.01 0.00 0.00 0.00 0.00 0.00 0.00 0.01 0.01
0.01 0.01 0.01 0.01 0.01 0.01 0.01 0.01 0.01 0.02 0.02 0.01 0.01 0.01 0.01 0.01 0.01 0.01 0.01 0.01 0.02 0.02 0.02 0.01 0.01 0.01 0.02 0.02 0.02 0.01 0.00 0.00 0.00 0.00 0.01 0.01 0.01 0.01
0.01 0.01 0.01 0.01 0.01 0.01 0.01 0.01 0.01 0.01 0.01 0.02 0.02 0.01 0.02 0.02 0.02 0.02 0.02 0.02 0.02 0.02 0.01 0.02 0.02 0.02 0.02 0.02 0.02 0.01 0.01 0.01 0.01 0.01 0.01 0.01 0.02 0.02
0.01 0.01 0.01 0.01 0.01 0.01 0.01 0.01 0.01 0.01 0.01 0.01 0.02 0.01 0.01 0.01 0.02 0.02 0.02 0.02 0.02 0.02 0.02 0.02 0.02 0.02 0.02 0.02 0.02 0.02 0.01 0.01 0.01 0.01 0.01 0.01 0.01 0.01
MSLP
1013.02 1013.41 1013.75 1014.07 1014.40 1014.78 1015.23 1015.77 1016.40 1017.11 1017.86 1018.61 1019.31 1019.92 1020.43 1020.82 1021.10 1021.29 1021.40 1021.46 1021.50 1021.52 1021.53 1021.52 1021.50 1021.44 1021.35 1021.23 1021.07 1020.88 1020.68 1020.46 1020.24 1020.01 1019.77 1019.51 1019.23 1018.92
1013.30 1013.67 1014.00 1014.29 1014.58 1014.92 1015.34 1015.86 1016.47 1017.18 1017.94 1018.72 1019.46 1020.12 1020.67 1021.11 1021.42 1021.63 1021.76 1021.82 1021.86 1021.87 1021.87 1021.86 1021.84 1021.79 1021.70 1021.58 1021.41 1021.22 1020.99 1020.74 1020.47 1020.18 1019.86 1019.52 1019.14 1018.73
1013.52 1013.91 1014.25 1014.54 1014.83 1015.15 1015.55 1016.05 1016.65 1017.34 1018.09 1018.87 1019.62 1020.30 1020.88 1021.33 1021.66 1021.88 1022.01 1022.08 1022.10 1022.11 1022.10 1022.09 1022.07 1022.02 1021.95 1021.84 1021.69 1021.49 1021.26 1020.99 1020.69 1020.34 1019.96 1019.54 1019.07 1018.56
1013.68 1014.12 1014.50 1014.82 1015.12 1015.45 1015.85 1016.33 1016.91 1017.58 1018.32 1019.08 1019.81 1020.49 1021.06 1021.51 1021.83 1022.05 1022.17 1022.22 1022.23 1022.23 1022.21 1022.19 1022.17 1022.13 1022.07 1021.97 1021.84 1021.65 1021.42 1021.15 1020.82 1020.44 1020.01 1019.51 1018.97 1018.36
1013.84 1014.33 1014.76 1015.13 1015.47 1015.82 1016.22 1016.70 1017.26 1017.91 1018.61 1019.33 1020.04 1020.68 1021.22 1021.65 1021.96 1022.16 1022.26 1022.30 1022.29 1022.27 1022.23 1022.20 1022.17 1022.13 1022.07 1021.98 1021.85 1021.67 1021.45 1021.17 1020.82 1020.41 1019.94 1019.39 1018.77 1018.09
1014.03 1014.59 1015.07 1015.49 1015.87 1016.26 1016.68 1017.16 1017.71 1018.32 1018.98 1019.66 1020.31 1020.91 1021.41 1021.81 1022.09 1022.26 1022.35 1022.36 1022.34 1022.29 1022.24 1022.19 1022.13 1022.07 1022.00 1021.89 1021.75 1021.57 1021.34 1021.04 1020.68 1020.24 1019.73 1019.14 1018.47 1017.72
1014.33 1014.92 1015.45 1015.92 1016.36 1016.78 1017.22 1017.70 1018.23 1018.81 1019.43 1020.05 1020.64 1021.18 1021.64 1022.00 1022.25 1022.40 1022.47 1022.48 1022.44 1022.37 1022.30 1022.21 1022.12 1022.03 1021.91 1021.77 1021.60 1021.38 1021.12 1020.79 1020.40 1019.94 1019.39 1018.76 1018.04 1017.25
1014.73 1015.36 1015.93 1016.44 1016.92 1017.37 1017.83 1018.31 1018.82 1019.37 1019.93 1020.49 1021.03 1021.51 1021.92 1022.24 1022.47 1022.61 1022.67 1022.68 1022.63 1022.55 1022.45 1022.33 1022.20 1022.04 1021.87 1021.66 1021.43 1021.16 1020.84 1020.46 1020.03 1019.53 1018.94 1018.27 1017.52 1016.70
1015.22 1015.87 1016.47 1017.02 1017.53 1018.01 1018.49 1018.97 1019.46 1019.96 1020.47 1020.98 1021.45 1021.88 1022.24 1022.53 1022.74 1022.88 1022.95 1022.96 1022.92 1022.83 1022.71 1022.55 1022.36 1022.14 1021.89 1021.61 1021.29 1020.93 1020.54 1020.10 1019.61 1019.06 1018.44 1017.74 1016.96 1016.11
1015.75 1016.42 1017.04 1017.62 1018.15 1018.66 1019.15 1019.63 1020.10 1020.57 1021.03 1021.47 1021.88 1022.26 1022.58 1022.84 1023.05 1023.19 1023.27 1023.30 1023.27 1023.18 1023.04 1022.85 1022.61 1022.31 1021.98 1021.60 1021.18 1020.74 1020.26 1019.74 1019.19 1018.59 1017.93 1017.20 1016.41 1015.55
1016.25 1016.93 1017.58 1018.18 1018.75 1019.28 1019.78 1020.25 1020.71 1021.15 1021.56 1021.95 1022.31 1022.63 1022.92 1023.15 1023.35 1023.50 1023.59 1023.64 1023.62 1023.54 1023.38 1023.16 1022.87 1022.51 1022.09 1021.62 1021.11 1020.57 1020.01 1019.43 1018.81 1018.16 1017.47 1016.73 1015.93 1015.07
1016.67 1017.37 1018.04 1018.68 1019.27 1019.83 1020.35 1020.83 1021.27 1021.68 1022.06 1022.40 1022.70 1022.98 1023.22 1023.44 1023.62 1023.76 1023.87 1023.92 1023.91 1023.83 1023.67 1023.42 1023.09 1022.67 1022.18 1021.64 1021.05 1020.44 1019.80 1019.16 1018.50 1017.82 1017.10 1016.35 1015.56 1014.72
1016.98 1017.72 1018.42 1019.09 1019.72 1020.30 1020.84 1021.33 1021.77 1022.16 1022.50 1022.80 1023.06 1023.29 1023.49 1023.67 1023.83 1023.96 1024.06 1024.12 1024.11 1024.02 1023.85 1023.58 1023.21 1022.75 1022.22 1021.62 1020.97 1020.30 1019.62 1018.94 1018.25 1017.55 1016.84 1016.09 1015.32 1014.51
1017.22 1017.98 1018.72 1019.42 1020.08 1020.69 1021.26 1021.76 1022.20 1022.58 1022.90 1023.16 1023.38 1023.57 1023.73 1023.87 1023.99 1024.10 1024.18 1024.21 1024.19 1024.09 1023.90 1023.61 1023.22 1022.73 1022.17 1021.54 1020.86 1020.16 1019.46 1018.75 1018.05 1017.36 1016.65 1015.93 1015.19 1014.42
1017.40 1018.20 1018.97 1019.70 1020.39 1021.03 1021.61 1022.13 1022.58 1022.96 1023.26 1023.50 1023.68 1023.83 1023.94 1024.03 1024.11 1024.18 1024.22 1024.22 1024.17 1024.05 1023.83 1023.52 1023.12 1022.62 1022.03 1021.39 1020.70 1020.00 1019.29 1018.58 1017.89 1017.20 1016.51 1015.82 1015.11 1014.39
1017.60 1018.42 1019.20 1019.95 1020.66 1021.32 1021.92 1022.45 1022.91 1023.29 1023.59 1023.81 1023.97 1024.07 1024.14 1024.19 1024.22 1024.23 1024.22 1024.17 1024.08 1023.92 1023.68 1023.34 1022.92 1022.41 1021.82 1021.18 1020.50 1019.80 1019.10 1018.40 1017.71 1017.04 1016.37 1015.70 1015.02 1014.34
1017.83 1018.65 1019.44 1020.19 1020.91 1021.58 1022.19 1022.74 1023.21 1023.59 1023.89 1024.10 1024.24 1024.31 1024.35 1024.34 1024.32 1024.27 1024.20 1024.10 1023.95 1023.74 1023.46 1023.10 1022.66 1022.14 1021.55 1020.91 1020.24 1019.55 1018.86 1018.17 1017.49 1016.82 1016.16 1015.50 1014.85 1014.20
1018.10 1018.91 1019.69 1020.43 1021.14 1021.80 1022.42 1022.98 1023.45 1023.84 1024.14 1024.35 1024.48 1024.53 1024.53 1024.48 1024.41 1024.30 1024.17 1024.00 1023.80 1023.53 1023.21 1022.81 1022.35 1021.81 1021.22 1020.58 1019.91 1019.23 1018.54 1017.85 1017.17 1016.50 1015.84 1015.18 1014.54 1013.90
1018.40 1019.18 1019.93 1020.65 1021.34 1021.99 1022.60 1023.16 1023.64 1024.03 1024.33 1024.54 1024.66 1024.70 1024.67 1024.59 1024.46 1024.30 1024.11 1023.88 1023.61 1023.29 1022.91 1022.48 1021.98 1021.43 1020.82 1020.18 1019.50 1018.81 1018.12 1017.42 1016.74 1016.06 1015.38 1014.72 1014.07 1013.44
1018.69 1019.44 1020.15 1020.83 1021.49 1022.13 1022.72 1023.27 1023.75 1024.14 1024.44 1024.65 1024.76 1024.78 1024.73 1024.61 1024.44 1024.23 1023.98 1023.69 1023.35 1022.98 1022.55 1022.07 1021.54 1020.96 1020.33 1019.68 1018.99 1018.29 1017.59 1016.88 1016.18 1015.48 1014.80 1014.12 1013.46 1012.83
1018.95 1019.65 1020.32 1020.97 1021.60 1022.21 1022.78 1023.31 1023.78 1024.16 1024.46 1024.65 1024.75 1024.75 1024.67 1024.52 1024.31 1024.05 1023.74 1023.39 1023.00 1022.57 1022.09 1021.57 1021.00 1020.39 1019.74 1019.06 1018.37 1017.66 1016.94 1016.22 1015.51 1014.81 1014.11 1013.43 1012.77 1012.13
1019.17 1019.83 1020.46 1021.07 1021.66 1022.24 1022.78 1023.29 1023.73 1024.09 1024.36 1024.53 1024.61 1024.58 1024.47 1024.28 1024.02 1023.71 1023.36 1022.96 1022.51 1022.03 1021.51 1020.95 1020.34 1019.71 1019.04 1018.35 1017.64 1016.92 1016.20 1015.49 1014.77 1014.07 1013.38 1012.71 1012.05 1011.43
1019.38 1019.99 1020.57 1021.14 1021.70 1022.24 1022.74 1023.21 1023.61 1023.93 1024.16 1024.29 1024.32 1024.26 1024.10 1023.87 1023.57 1023.22 1022.82 1022.37 1021.89 1021.36 1020.81 1020.21 1019.59 1018.93 1018.25 1017.55 1016.84 1016.13 1015.42 1014.71 1014.02 1013.34 1012.67 1012.02 1011.39 1010.79
Thickness
5569 5569 5569 5568 5567 5566 5566 5565 5564 5564 5564 5562 5559 5556 5554 5553 5552 5551 5550 5548 5547 5545 5543 5542 5540 5538 5537 5535 5534 5532 5531 5529 5527 5526 5525 5524 5523 5522
5561 5561 5561 5560 5559 5558 5558 5557 5557 5556 5557 5555 5551 5549 5546 5544 5543 5542 5540 5539 5538 5536 5534 5533 5531 5530 5528 5526 5525 5523 5521 5519 5517 5515 5514 5513 5513 5511
5553 5553 5553 5552 5551 5551 5550 5549 5548 5548 5547 5545 5542 5540 5538 5536 5534 5533 5531 5530 5529 5527 5525 5524 5522 5521 5519 5517 5515 5513 5511 5509 5507 5505 5504 5503 5502 5500
5547 5546 5545 5544 5543 5542 5541 5541 5540 5539 5538 5537 5534 5531 5529 5528 5526 5524 5522 5521 5520 5518 5516 5514 5513 5511 5509 5508 5506 5504 5501 5499 5497 5495 5494 5493 5491 5490
5539 5538 5538 5537 5536 5535 5533 5532 5531 5530 5529 5528 5526 5523 5520 5518 5516 5515 5513 5512 5510 5508 5506 5505 5503 5502 5500 5498 5496 5494 5492 5490 5488 5486 5484 5482 5481 5479
5530 5530 5530 5529 5528 5527 5525 5524 5522 5520 5519 5518 5517 5514 5512 5509 5508 5507 5505 5503 5501 5499 5497 5496 5494 5492 5491 5489 5487 5484 5482 5480 5478 5476 5474 5472 5471 5469
5521 5520 5520 5520 5519 5518 5517 5516 5514 5512 5511 5509 5508 5506 5504 5501 5499 5498 5497 5495 5493 5490 5489 5487 5486 5484 5482 5480 5477 5475 5473 5471 5469 5467 5465 5463 5461 5459
5511 5511 5510 5509 5508 5507 5507 5506 5504 5503 5502 5500 5500 5499 5498 5494 5492 5489 5487 5484 5484 5482 5479 5478 5475 5474 5472 5470 5468 5466 5464 5462 5459 5457 5455 5453 5450 5448
5501 5501 5500 5500 5498 5498 5496 5495 5493 5492 5492 5491 5491 5490 5489 5486 5482 5478 5476 5474 5474 5472 5468 5469 5466 5464 5462 5460 5458 5456 5454 5452 5449 5447 5444 5442 5439 5437
5491 5491 5491 5490 5489 5488 5487 5486 5485 5483 5481 5480 5480 5479 5477 5474 5471 5469 5466 5463 5462 5459 5456 5457 5456 5454 5451 5449 5447 5445 5443 5441 5438 5436 5433 5431 5428 5426
5479 5479 5480 5480 5478 5477 5476 5475 5474 5473 5470 5468 5468 5466 5465 5462 5459 5456 5454 5452 5452 5451 5445 5444 5445 5442 5441 5440 5437 5434 5432 5429 5427 5425 5422 5419 5417 5414
5467 5468 5468 5468 5466 5465 5465 5465 5463 5462 5459 5457 5456 5455 5453 5451 5448 5446 5444 5441 5440 5440 5436 5432 5431 5428 5429 5430 5426 5423 5420 5418 5415 5413 5410 5408 5405 5402
5456 5456 5456 5455 5454 5453 5453 5453 5452 5449 5448 5446 5445 5444 5442 5440 5437 5434 5432 5429 5428 5427 5424 5420 5418 5415 5414 5415 5414 5411 5408 5406 5404 5402 5399 5396 5393 5390
5444 5445 5444 5443 5442 5441 5440 5439 5437 5436 5436 5435 5433 5432 5430 5428 5425 5422 5419 5417 5415 5414 5411 5408 5405 5403 5401 5401 5402 5400 5396 5393 5392 5390 5387 5385 5382 5380
5430 5431 5431 5430 5428 5428 5427 5426 5424 5424 5424 5423 5421 5419 5417 5414 5412 5409 5407 5404 5402 5400 5398 5396 5393 5390 5388 5387 5388 5386 5384 5382 5379 5377 5375 5373 5371 5369
5415 5416 5416 5415 5415 5415 5414 5413 5412 5412 5411 5410 5409 5407 5404 5401 5399 5397 5394 5392 5390 5388 5385 5383 5381 5378 5376 5375 5374 5373 5371 5369 5368 5364 5363 5361 5359 5358
5402 5402 5402 5402 5403 5402 5402 5401 5400 5399 5398 5397 5396 5394 5392 5389 5387 5384 5381 5379 5378 5377 5374 5371 5368 5366 5364 5362 5361 5360 5359 5357 5355 5353 5351 5351 5350 5348
5389 5390 5391 5390 5390 5390 5389 5388 5387 5386 5386 5384 5383 5382 5380 5378 5375 5372 5369 5367 5366 5364 5362 5359 5356 5354 5352 5351 5349 5348 5347 5345 5344 5341 5339 5339 5341 5339
5376 5377 5377 5377 5376 5376 5376 5375 5375 5374 5372 5372 5371 5369 5367 5366 5363 5361 5358 5356 5354 5352 5350 5346 5344 5342 5342 5343 5342 5336 5334 5333 5331 5330 5329 5328 5329 5330
5362 5363 5363 5363 5363 5362 5362 5362 5361 5361 5360 5359 5358 5357 5355 5354 5351 5349 5347 5345 5343 5341 5338 5336 5333 5331 5329 5329 5329 5326 5321 5320 5319 5319 5318 5317 5317 5317
5347 5348 5349 5349 5349 5349 5349 5348 5348 5347 5347 5346 5346 5344 5343 5341 5340 5338 5336 5334 5331 5330 5329 5327 5323 5318 5315 5313 5314 5316 5313 5309 5307 5306 5305 5305 5306 5308
5333 5334 5335 5336 5336 5336 5336 5335 5335 5335 5334 5333 5333 5332 5331 5330 5328 5327 5325 5323 5321 5319 5317 5315 5311 5307 5305 5304 5305 5304 5303 5300 5298 5296 5294 5293 5292 5296
5320 5321 5322 5323 5324 5324 5323 5323 5323 5322 5321 5321 5320 5319 5318 5318 5317 5316 5314 5312 5310 5308 5305 5303 5300 5297 5295 5293 5293 5292 5290 5289 5289 5289 5288 5285 5284 5284